STARLINK-33772, 63656

Orbit data source: Space-Track

STARLINK-33772, 63656 is a payload satellite owned by SpaceX/Seattle (US) in LEO that was launched on Fri, 25 Apr 2025 UTC via an FALCON 9 launch vehicle from the Air Force Eastern Test Range (AFETR). Payload-class satellites include a variety of spacecraft equipped with specific instruments for various scientific and technological missions. These include communications satellites like Starlink; space stations such as the ISS; scientific satellites like the Hubble; Earth observation satellites from companies like Planet Labs, Umbra, and HawkEye 360; GPS; miniature CubeSats for education and research; and military/defense satellites.

Loading next visibility...
Identifier
63656, 2025-083Y
Orbit
LEO
Country
Flag of USUS
Related business
Manufacturer
SpaceX/Seattle
Mission
Operational Commercial Communications
Bus & Motor
STARLINK V2MO, Unknown motor
Mass
575 kg wet, ~530 kg dry
Launch date (UTC)
2025-04-25 (1 year ago)
Launch vehicle
FALCON 9
Launch site
Air Force Eastern Test Range (AFETR)
Object type
Payload
Rocket body
Debris
Shape & HBR
Box + 2 Pan, 17.7 m
Radar Cross Section
36.964 m², Large (>1 m²)

Expand to show TLE details & history
Last TLE update: 20 hours ago

TLE from 20 hours ago
0 STARLINK-33772
1 63656U 25083Y   26170.99639353  .00014934  00000-0  55081-3 0  9990
2 63656  43.0017 147.4044 0001772 278.3120  81.7531 15.27596964 65748
Epoch: 2026-06-19T23:54Z
TLE epoch observation values (Epoch: 2026-06-19T23:54:48.400Z)
Latitude
0.00002°
Longitude
-119.5146°
Altitude
482.6 km
Speed
7.626 km/s
True Right ascension
09h 49m 37s
True Declination
0° 00' 00"
Sunlit
Object was in daylight at epoch
Visualization orbit readout
Latitude
Unknown
Longitude
Unknown
Altitude
Unknown
Speed
Unknown
Apparent Right ascension
Unknown
Apparent Declination
Unknown
Sunlit
N/A
Visualization observer readout
Local Sidereal Time
07:17:43
Azimuth
Unknown
Elevation
Unknown
Doppler factor
Unknown
Orbital elements
Apogee altitude
486.159 km
Perigee altitude
483.727 km
Semi-major axis
6,863.08 km
Eccentricity
0.00018
Inclination
43.0017°
RAAN
147.4044°
Arg. of periapsis
278.312°
True anomaly
81.7732°
Mean anomaly
81.7531°
Eccentric anomaly
81.76315°
Mean motion
3.81737 °/min
Orbital period
94.31 mins
BSTAR
0.00055081
Loading maneuver chart data...
Computing Atmospheric mass density...
Loading historical data...
Loading historical data...
Loading historical data...
Loading historical data...
Loading historical data...
Loading historical data...
Loading historical data...

Documentation

Showing up to 5 results
|